Overview Statistics Trail Chart Weather Telemetry Raw packets
 

This is the latest recevied weather packets stored in our database for station/object IU7URP-17. If no packets are shown the sender has not sent any weather packets the latest 10 day(s).

<< 7 8 9 10 11 12 13 >>
Time Temp. Humidity Pressure Rain* Wind** Luminosity Snow
1788358345 34.44° C 37% 1016.2 hPa - - - -
1788357141 34.44° C 38% 1016.3 hPa - - - -
1788355937 34.44° C 36% 1016.6 hPa - - - -
1788354733 34.44° C 38% 1016.7 hPa - - - -
1788353529 34.44° C 39% 1017 hPa - - - -
1788349917 33.89° C 40% 1017.6 hPa - - - -
1788348713 33.33° C 42% 1017.7 hPa - - - -
1788347509 33.89° C 46% 1018 hPa - - - -
1788346305 32.78° C 44% 1018.2 hPa - - - -
1788345101 32.78° C 47% 1018.4 hPa - - - -
1788343897 33.33° C 47% 1018.2 hPa - - - -
1788342693 33.33° C 46% 1018.4 hPa - - - -
1788341488 32.78° C 46% 1018.4 hPa - - - -
1788340284 32.22° C 43% 1018.4 hPa - - - -
1788339080 32.78° C 41% 1018.5 hPa - - - -
1788337876 32.22° C 41% 1018.5 hPa - - - -
1788336672 31.67° C 44% 1018.6 hPa - - - -
1788335468 31.67° C 48% 1018.5 hPa - - - -
1788334263 30.56° C 48% 1018.6 hPa - - - -
1788333059 30.56° C 55% 1018.6 hPa - - - -
1788331855 29.44° C 58% 1018.6 hPa - - - -
1788330661 28.33° C 67% 1018.7 hPa - - - -
1788329447 27.22° C 71% 1018.6 hPa - - - -
1788328243 26.67° C 71% 1018.6 hPa - - - -
1788327039 25.56° C 73% 1018.7 hPa - - - -

* Rain since midnight (hover to see other rain measurements)
** Current wind speed in m/s (hover to see current wind gust speed)